Weather Roundup
Issued by NWS

Home | Current Version | Previous Version | Text Only | Print | Product List | Glossary On
Versions: 1 2 3 4 5 6 7 8 9 10 11 12 13 14 15 16 17 18 19 20 21 22 23 24 25 26 27 28 29 30 31 32 33 34 35 36 37 38 39 40 41 42 43 44 45 46 47 48 49 50
000
NZUS93 KARX 240110
HRRWXR

CURRENT HOURLY OBSERVATIONS ACROSS
MUCH OF THE UPPER MISSISSIPPI VALLEY
NATIONAL WEATHER SERVICE LA CROSSE WI
800 PM CDT WED JUL 23 2014


...SOUTHEAST MINNESOTA...


CITY           SKY/WX    TMP DP  RH WIND       PRES   REMARKS
ROCHESTER      CLEAR     72  56  57 N7        30.18F
ROCHESTER/MAYO FAIR      76  49  38 N5        30.18R
WINONA         CLEAR     77  55  47 NW5       30.15S
AUSTIN         CLEAR     73  55  53 CALM      30.17S
ALBERT LEA     CLEAR     73  57  56 CALM      30.18S
DODGE CENTER   PTCLDY    73  61  64 N3        30.18S
PRESTON        CLEAR     71  62  74 N3        30.18S
OWATONNA       CLEAR     75  54  46 NW5       30.18S
FARIBAULT      CLEAR     77  48  36 CALM      30.18S
$$

...ELSEWHERE IN MINNESOTA...


CITY           SKY/WX    TMP DP  RH WIND       PRES   REMARKS
MINNEAPOLIS    PTCLDY    78  51  38 N6        30.16F
INTNL FALLS    CLEAR     68  50  52 CALM      30.20F
DULUTH         PTCLDY    68  54  60 E5        30.19F
RED WING       CLEAR     77  54  44 CALM      30.15S
REDWOOD FALLS  CLEAR     77  54  44 N6        30.18F
MANKATO        CLEAR     75  54  46 N6        30.17S
WORTHINGTON    CLEAR     75  55  50 NE6       30.21F
FAIRMONT       CLEAR     75  55  50 N3        30.18F
$$

...SOUTHWEST WISCONSIN...


CITY           SKY/WX    TMP DP  RH WIND       PRES   REMARKS
LA CROSSE      PTCLDY    78  57  48 NW8       30.13F
PRAIRIE DU CHI CLEAR     75  53  45 CALM      30.13S
BOSCOBEL       PTCLDY    77  59  53 CALM      30.14R
LONE ROCK      PTCLDY    74  62  66 N5        30.14R
PLATTEVILLE    CLEAR     71  57  61 N5        30.16S
FORT MC COY    CLEAR     73  56  53 CALM      30.15S
CAMP DOUGLAS   PTCLDY    73  61  64 CALM      30.15R
VIROQUA        FAIR      71  60  67 CALM      30.17S
WIS DELLS      MOCLDY    71  55  56 CALM      30.15S
$$

...ELSEWHERE IN WISCONSIN...


CITY           SKY/WX    TMP DP  RH WIND       PRES   REMARKS
MILWAUKEE      PTCLDY    61  51  70 N8        30.16F
MADISON        PTCLDY    71  55  56 NE7       30.14S
GREEN BAY      CLEAR     67  52  58 NE8       30.16S
EAU CLAIRE     CLEAR     75  56  51 NE5       30.16R
BLACK RVR FLS  FAIR      76  52  43 N5        30.15S
MEDFORD        CLEAR     68  55  62 N6        30.18S
WAUSAU         CLEAR     72  52  49 N5        30.15S
WIS RAPIDS     CLEAR     74  54  49 N5        30.16S
MARSHFIELD     CLEAR     71  56  58 NE5       30.16S
RICE LAKE      CLEAR     73  53  49 N7        30.19S
$$

...NORTHEAST IOWA...


CITY           SKY/WX    TMP DP  RH WIND       PRES   REMARKS
WATERLOO       CLEAR     75  58  55 NE3       30.14S
DUBUQUE        CLEAR     71  57  61 N7        30.15S
DECORAH        CLEAR     73  59  60 CALM      30.15F
MASON CITY     CLEAR     74  60  61 N6        30.18S
CHARLES CITY   CLEAR     73  59  60 N5        30.17S
OELWEIN        CLEAR     73  59  60 N3        30.17R
$$

...ELSEWHERE IN IOWA...


CITY           SKY/WX    TMP DP  RH WIND       PRES   REMARKS
DES MOINES     PTCLDY    79  56  45 E9        30.14S
IOWA CITY      CLEAR     76  57  51 NE8       30.15R
FORT DODGE     CLEAR     75  61  60 NE3       30.17S
MARSHALLTOWN   CLEAR     75  61  61 NE3       30.15S
CEDAR RAPIDS   CLEAR     74  55  51 N7        30.14R
$$

...NORTHERN ILLINOIS...


CITY           SKY/WX    TMP DP  RH WIND       PRES   REMARKS
CHICAGO-OHARE  PTCLDY    65  49  56 N12       30.14F
DUPAGE         CLEAR     65  51  60 NE12      30.14S
CHICAGO-MIDWAY PTCLDY    67  50  54 N17G24    30.14S
MOLINE         CLEAR     75  54  47 NE7       30.12R
ROCKFORD       PTCLDY    72  54  53 E12       30.15R
STERLING       CLEAR     72  57  60 NE5       30.13S
PEORIA         CLEAR     76  55  48 N6        30.11S
$$

NOTE: "FAIR" INDICATES FEW OR NO CLOUDS BELOW 12,000 FEET WITH NO
SIGNIFICANT WEATHER AND/OR OBSTRUCTIONS TO VISIBILITY. WIND
SPEEDS ARE IN MILES-PER-HOUR.



USA.gov is the U.S. government's official web portal to all federal, state and local government web resources and services.